| time (UTC) | temp C | wind direction | speed KPH | gust KPH | rain 1hr cm | rain 24hr cm | rain mn cm | humidity % | barometer mb |
| 20260510062422 | 13 | 74 | 0.0 | 0.0 | 0.00 | 0.00 | 0.00 | 74 | 1015.1 |
| 20260510061922 | 13 | 74 | 0.0 | 0.0 | 0.00 | 0.00 | 0.00 | 74 | 1015.1 |
| 20260510061423 | 14 | 74 | 0.0 | 1.6 | 0.00 | 0.00 | 0.00 | 74 | 1015.1 |
| 20260510055922 | 15 | 87 | 0.0 | 0.0 | 0.00 | 0.00 | 0.00 | 71 | 1015.1 |
| 20260510055423 | 15 | 88 | 0.0 | 0.0 | 0.00 | 0.00 | 0.00 | 70 | 1015.1 |
| 20260510054922 | 15 | 87 | 0.0 | 0.0 | 0.00 | 0.00 | 0.00 | 69 | 1015.1 |
| 20260510054422 | 15 | 87 | 0.0 | 0.0 | 0.00 | 0.00 | 0.00 | 69 | 1015.1 |
| 20260510053922 | 15 | 87 | 0.0 | 0.0 | 0.00 | 0.00 | 0.00 | 69 | 1015.1 |
| 20260510053422 | 15 | 88 | 0.0 | 0.0 | 0.00 | 0.00 | 0.00 | 69 | 1015.1 |
| 20260510052922 | 16 | 87 | 0.0 | 0.0 | 0.00 | 0.00 | 0.00 | 68 | 1015.1 |
| 20260510052422 | 16 | 87 | 0.0 | 0.0 | 0.00 | 0.00 | 0.00 | 67 | 1015.0 |
| 20260510051922 | 16 | 87 | 0.0 | 3.2 | 0.00 | 0.00 | 0.00 | 66 | 1015.0 |
| 20260510051422 | 16 | 87 | 0.0 | 3.2 | 0.00 | 0.00 | 0.00 | 65 | 1015.0 |
| 20260510050922 | 16 | 182 | 0.0 | 3.2 | 0.00 | 0.00 | 0.00 | 65 | 1014.6 |
| 20260510045922 | 17 | 284 | 0.0 | 0.0 | 0.00 | 0.00 | 0.00 | 60 | 1014.6 |
| 20260510045422 | 17 | 284 | 0.0 | 0.0 | 0.00 | 0.00 | 0.00 | 59 | 1014.6 |
| 20260510044922 | 17 | 284 | 0.0 | 0.0 | 0.00 | 0.00 | 0.00 | 57 | 1014.6 |
| 20260510044421 | 18 | 284 | 0.0 | 0.0 | 0.00 | 0.00 | 0.00 | 56 | 1014.6 |
| 20260510043922 | 18 | 284 | 0.0 | 0.0 | 0.00 | 0.00 | 0.00 | 55 | 1014.4 |
| 20260510043422 | 18 | 284 | 0.0 | 1.6 | 0.00 | 0.00 | 0.00 | 53 | 1014.4 |
| 20260510042922 | 18 | 284 | 0.0 | 1.6 | 0.00 | 0.00 | 0.00 | 53 | 1014.4 |
| 20260510041921 | 18 | 238 | 0.0 | 0.0 | 0.00 | 0.00 | 0.00 | 53 | 1014.2 |
| 20260510041421 | 18 | 238 | 0.0 | 1.6 | 0.00 | 0.00 | 0.00 | 53 | 1014.2 |
| 20260510040921 | 18 | 238 | 0.0 | 1.6 | 0.00 | 0.00 | 0.00 | 53 | 1014.1 |
| 20260510040421 | 18 | 238 | 0.0 | 1.6 | 0.00 | 0.00 | 0.00 | 53 | 1014.1 |
| 20260510035921 | 19 | 238 | 0.0 | 3.2 | 0.00 | 0.00 | 0.00 | 53 | 1014.2 |
| 20260510035421 | 19 | 230 | 0.0 | 3.2 | 0.00 | 0.00 | 0.00 | 52 | 1014.0 |
| 20260510034922 | 19 | 286 | 0.0 | 0.0 | 0.00 | 0.00 | 0.00 | 51 | 1014.0 |
| 20260510034421 | 20 | 286 | 0.0 | 1.6 | 0.00 | 0.00 | 0.00 | 50 | 1014.0 |
| 20260510033921 | 20 | 286 | 0.0 | 1.6 | 0.00 | 0.00 | 0.00 | 48 | 1013.8 |
| 20260510030921 | 21 | 341 | 0.0 | 0.0 | 0.00 | 0.00 | 0.00 | 45 | 1013.8 |
| 20260510030421 | 21 | 344 | 0.0 | 0.0 | 0.00 | 0.00 | 0.00 | 47 | 1013.8 |
| 20260510025921 | 21 | 344 | 0.0 | 0.0 | 0.00 | 0.00 | 0.00 | 47 | 1013.8 |
| 20260510025421 | 21 | 344 | 0.0 | 0.0 | 0.00 | 0.00 | 0.00 | 49 | 1013.6 |
| 20260510024921 | 21 | 344 | 0.0 | 0.0 | 0.00 | 0.00 | 0.00 | 48 | 1013.6 |
| 20260510024421 | 22 | 344 | 0.0 | 0.0 | 0.00 | 0.00 | 0.00 | 48 | 1013.7 |
| 20260510023921 | 22 | 344 | 0.0 | 0.0 | 0.00 | 0.00 | 0.00 | 46 | 1013.7 |
| 20260510023421 | 22 | 344 | 0.0 | 0.0 | 0.00 | 0.00 | 0.00 | 47 | 1013.7 |
| 20260510022921 | 22 | 344 | 0.0 | 1.6 | 0.00 | 0.00 | 0.00 | 44 | 1013.7 |
| 20260510021921 | 22 | 345 | 0.0 | 0.0 | 0.00 | 0.00 | 0.00 | 42 | 1013.7 |
| 20260510021421 | 22 | 338 | 0.0 | 0.0 | 0.00 | 0.00 | 0.00 | 40 | 1013.7 |
| 20260510020920 | 23 | 338 | 0.0 | 0.0 | 0.00 | 0.00 | 0.00 | 36 | 1013.7 |
| 20260510020420 | 23 | 338 | 0.0 | 0.0 | 0.00 | 0.00 | 0.00 | 35 | 1013.7 |
| 20260510015920 | 23 | 338 | 0.0 | 0.0 | 0.00 | 0.00 | 0.00 | 37 | 1013.7 |
| 20260510015420 | 23 | 338 | 0.0 | 0.0 | 0.00 | 0.00 | 0.00 | 36 | 1013.7 |
| 20260510014920 | 23 | 338 | 0.0 | 0.0 | 0.00 | 0.00 | 0.00 | 37 | 1013.7 |
| 20260510013920 | 23 | 338 | 0.0 | 0.0 | 0.00 | 0.00 | 0.00 | 36 | 1013.8 |
| 20260510013420 | 23 | 338 | 0.0 | 1.6 | 0.00 | 0.00 | 0.00 | 38 | 1013.8 |
| 20260510012920 | 23 | 338 | 0.0 | 1.6 | 0.00 | 0.00 | 0.00 | 34 | 1013.8 |
| 20260510012421 | 23 | 338 | 0.0 | 0.0 | 0.00 | 0.00 | 0.00 | 35 | 1014.0 |
| 20260510011920 | 23 | 338 | 0.0 | 1.6 | 0.00 | 0.00 | 0.00 | 34 | 1014.0 |
| 20260510011420 | 23 | 338 | 0.0 | 3.2 | 0.00 | 0.00 | 0.00 | 35 | 1014.0 |
| 20260510010920 | 23 | 338 | 0.0 | 3.2 | 0.00 | 0.00 | 0.00 | 34 | 1014.1 |
| 20260510010420 | 24 | 142 | 0.0 | 3.2 | 0.00 | 0.00 | 0.00 | 35 | 1014.1 |
| 20260510005920 | 24 | 141 | 0.0 | 3.2 | 0.00 | 0.00 | 0.00 | 34 | 1014.1 |
| 20260510005420 | 24 | 142 | 1.6 | 3.2 | 0.00 | 0.00 | 0.00 | 33 | 1014.1 |
| 20260510004920 | 24 | 140 | 1.6 | 3.2 | 0.00 | 0.00 | 0.00 | 32 | 1014.1 |
| 20260510004420 | 24 | 75 | 1.6 | 3.2 | 0.00 | 0.00 | 0.00 | 36 | 1014.1 |
| 20260510003920 | 24 | 72 | 0.0 | 3.2 | 0.00 | 0.00 | 0.00 | 33 | 1014.1 |
| 20260510003420 | 24 | 74 | 0.0 | 3.2 | 0.00 | 0.00 | 0.00 | 31 | 1014.1 |
| 20260510002920 | 24 | 46 | 0.0 | 3.2 | 0.00 | 0.00 | 0.00 | 32 | 1014.1 |
| 20260510002420 | 24 | 48 | 3.2 | 3.2 | 0.00 | 0.00 | 0.00 | 29 | 1014.2 |
| 20260510001920 | 24 | 133 | 0.0 | 3.2 | 0.00 | 0.00 | 0.00 | 27 | 1014.2 |
| 20260510001420 | 24 | 133 | 0.0 | 3.2 | 0.00 | 0.00 | 0.00 | 27 | 1014.2 |
| 20260510000919 | 24 | 30 | 0.0 | 8.0 | 0.00 | 0.00 | 0.00 | 27 | 1014.5 |
| 20260510000419 | 24 | 15 | 0.0 | 8.0 | 0.00 | 0.00 | 0.00 | 28 | 1014.5 |
| 20260509235920 | 24 | 10 | 8.0 | 8.0 | 0.00 | 0.00 | 0.00 | 26 | 1014.5 |
| 20260509235419 | 24 | 91 | 1.6 | 8.0 | 0.00 | 0.00 | 0.00 | 26 | 1014.6 |
| 20260509234919 | 24 | 121 | 4.8 | 12.9 | 0.00 | 0.00 | 0.00 | 28 | 1014.6 |
| 20260509234420 | 24 | 56 | 1.6 | 12.9 | 0.00 | 0.00 | 0.00 | 26 | 1014.6 |
| 20260509233920 | 25 | 38 | 3.2 | 8.0 | 0.00 | 0.00 | 0.00 | 29 | 1014.7 |
| 20260509232919 | 24 | 106 | 3.2 | 8.0 | 0.00 | 0.00 | 0.00 | 28 | 1014.7 |
| 20260509232420 | 24 | 94 | 0.0 | 8.0 | 0.00 | 0.00 | 0.00 | 30 | 1014.7 |
| 20260509231919 | 24 | 63 | 3.2 | 8.0 | 0.00 | 0.00 | 0.00 | 31 | 1014.7 |
| 20260509230920 | 23 | 49 | 1.6 | 9.7 | 0.00 | 0.00 | 0.00 | 32 | 1015.0 |
| 20260509230419 | 23 | 31 | 0.0 | 9.7 | 0.00 | 0.00 | 0.00 | 35 | 1015.0 |
| 20260509225919 | 23 | 37 | 1.6 | 9.7 | 0.00 | 0.00 | 0.00 | 34 | 1015.0 |
| 20260509225419 | 23 | 73 | 0.0 | 8.0 | 0.00 | 0.00 | 0.00 | 36 | 1015.2 |
| 20260509224919 | 23 | 61 | 0.0 | 11.3 | 0.00 | 0.00 | 0.00 | 36 | 1015.2 |
| 20260509224419 | 23 | 42 | 1.6 | 11.3 | 0.00 | 0.00 | 0.00 | 36 | 1015.2 |
| 20260509223919 | 23 | 54 | 0.0 | 9.7 | 0.00 | 0.00 | 0.00 | 38 | 1015.4 |
| 20260509223419 | 23 | 190 | 3.2 | 8.0 | 0.00 | 0.00 | 0.00 | 41 | 1015.4 |
| 20260509222919 | 23 | 127 | 0.0 | 11.3 | 0.00 | 0.00 | 0.00 | 41 | 1015.4 |
| 20260509222419 | 23 | 59 | 3.2 | 11.3 | 0.00 | 0.00 | 0.00 | 43 | 1015.7 |
| 20260509221919 | 23 | 31 | 11.3 | 11.3 | 0.00 | 0.00 | 0.00 | 41 | 1015.7 |
| 20260509221419 | 23 | 45 | 8.0 | 11.3 | 0.00 | 0.00 | 0.00 | 42 | 1015.7 |
| 20260509220919 | 23 | 59 | 1.6 | 11.3 | 0.00 | 0.00 | 0.00 | 44 | 1016.1 |
| 20260509220419 | 23 | 71 | 0.0 | 9.7 | 0.00 | 0.00 | 0.00 | 41 | 1016.1 |
| 20260509215919 | 23 | 56 | 3.2 | 8.0 | 0.00 | 0.00 | 0.00 | 40 | 1016.1 |
| 20260509215419 | 23 | 49 | 0.0 | 12.9 | 0.00 | 0.00 | 0.00 | 38 | 1016.2 |
| 20260509211419 | 23 | 40 | 3.2 | 9.7 | 0.00 | 0.00 | 0.00 | 42 | 1016.7 |
| 20260509210419 | 22 | 166 | 0.0 | 8.0 | 0.00 | 0.00 | 0.00 | 46 | 1016.8 |
| 20260509205919 | 22 | 52 | 1.6 | 8.0 | 0.00 | 0.00 | 0.00 | 46 | 1016.8 |
| 20260509204919 | 22 | 69 | 4.8 | 16.1 | 0.00 | 0.00 | 0.00 | 46 | 1017.0 |
| 20260509204418 | 22 | 38 | 3.2 | 11.3 | 0.00 | 0.00 | 0.00 | 45 | 1017.0 |
| 20260509203918 | 22 | 84 | 3.2 | 8.0 | 0.00 | 0.00 | 0.00 | 47 | 1017.2 |
| 20260509203419 | 22 | 325 | 1.6 | 8.0 | 0.00 | 0.00 | 0.00 | 54 | 1017.2 |
| 20260509202918 | 21 | 5 | 0.0 | 11.3 | 0.00 | 0.00 | 0.00 | 55 | 1017.2 |
| 20260509202418 | 21 | 68 | 4.8 | 11.3 | 0.00 | 0.00 | 0.00 | 53 | 1017.3 |
| 20260509201918 | 21 | 337 | 3.2 | 11.3 | 0.00 | 0.00 | 0.00 | 50 | 1017.3 |
| 20260509201418 | 21 | 28 | 0.0 | 8.0 | 0.00 | 0.00 | 0.00 | 53 | 1017.3 |
| 20260509200918 | 21 | 360 | 0.0 | 8.0 | 0.00 | 0.00 | 0.00 | 58 | 1017.7 |
| 20260509200418 | 20 | 58 | 3.2 | 9.7 | 0.00 | 0.00 | 0.00 | 59 | 1017.7 |
| 20260509195918 | 20 | 26 | 4.8 | 9.7 | 0.00 | 0.00 | 0.00 | 55 | 1017.7 |
| 20260509195418 | 20 | 64 | 4.8 | 9.7 | 0.00 | 0.00 | 0.00 | 59 | 1017.8 |
| 20260509194918 | 20 | 71 | 0.0 | 9.7 | 0.00 | 0.00 | 0.00 | 55 | 1017.8 |
| 20260509194418 | 21 | 78 | 3.2 | 4.8 | 0.00 | 0.00 | 0.00 | 59 | 1017.8 |
| 20260509193918 | 21 | 48 | 1.6 | 4.8 | 0.00 | 0.00 | 0.00 | 61 | 1018.0 |
| 20260509193418 | 20 | 65 | 0.0 | 6.4 | 0.00 | 0.00 | 0.00 | 60 | 1018.0 |
| 20260509192918 | 20 | 20 | 1.6 | 9.7 | 0.00 | 0.00 | 0.00 | 61 | 1018.0 |
| 20260509192418 | 20 | 57 | 3.2 | 11.3 | 0.00 | 0.00 | 0.00 | 58 | 1018.3 |
| 20260509191918 | 20 | 77 | 6.4 | 11.3 | 0.00 | 0.00 | 0.00 | 60 | 1018.3 |
| 20260509191417 | 20 | 298 | 1.6 | 9.7 | 0.00 | 0.00 | 0.00 | 63 | 1018.3 |
| 20260509190917 | 19 | 326 | 1.6 | 9.7 | 0.00 | 0.00 | 0.00 | 61 | 1018.4 |
| 20260509190417 | 19 | 254 | 0.0 | 11.3 | 0.00 | 0.00 | 0.00 | 61 | 1018.4 |
| 20260509185417 | 19 | 36 | 1.6 | 11.3 | 0.00 | 0.00 | 0.00 | 61 | 1018.7 |
| 20260509184917 | 19 | 58 | 3.2 | 11.3 | 0.00 | 0.00 | 0.00 | 62 | 1018.7 |
| 20260509184418 | 19 | 161 | 0.0 | 9.7 | 0.00 | 0.00 | 0.00 | 62 | 1018.7 |
| 20260509183918 | 19 | 51 | 0.0 | 9.7 | 0.00 | 0.00 | 0.00 | 64 | 1018.7 |
| 20260509183417 | 18 | 355 | 1.6 | 9.7 | 0.00 | 0.00 | 0.00 | 64 | 1018.7 |
| 20260509182917 | 19 | 22 | 1.6 | 8.0 | 0.00 | 0.00 | 0.00 | 62 | 1018.7 |
| 20260509182417 | 18 | 328 | 0.0 | 8.0 | 0.00 | 0.00 | 0.00 | 66 | 1018.8 |
| 20260509181917 | 18 | 37 | 8.0 | 8.0 | 0.00 | 0.00 | 0.00 | 65 | 1018.8 |
| 20260509181417 | 18 | 46 | 6.4 | 12.9 | 0.00 | 0.00 | 0.00 | 65 | 1018.8 |
| 20260509180917 | 18 | 66 | 4.8 | 12.9 | 0.00 | 0.00 | 0.00 | 62 | 1018.9 |
| 20260509180417 | 18 | 30 | 0.0 | 6.4 | 0.00 | 0.00 | 0.00 | 65 | 1018.9 |
| 20260509175917 | 17 | 87 | 0.0 | 8.0 | 0.00 | 0.00 | 0.00 | 65 | 1018.8 |
| 20260509175417 | 17 | 36 | 0.0 | 8.0 | 0.00 | 0.00 | 0.00 | 65 | 1019.1 |
| 20260509174917 | 17 | 75 | 3.2 | 9.7 | 0.00 | 0.00 | 0.00 | 67 | 1019.1 |
| 20260509174418 | 17 | 76 | 1.6 | 9.7 | 0.00 | 0.00 | 0.00 | 67 | 1019.1 |
| 20260509173417 | 17 | 56 | 3.2 | 4.8 | 0.00 | 0.00 | 0.00 | 67 | 1019.3 |
| 20260509172917 | 17 | 41 | 0.0 | 4.8 | 0.00 | 0.00 | 0.00 | 69 | 1019.3 |
| 20260509172417 | 17 | 52 | 0.0 | 4.8 | 0.00 | 0.00 | 0.00 | 70 | 1019.2 |
| 20260509171917 | 16 | 105 | 0.0 | 8.0 | 0.00 | 0.00 | 0.00 | 70 | 1019.2 |
| 20260509171417 | 16 | 343 | 0.0 | 8.0 | 0.00 | 0.00 | 0.00 | 70 | 1019.2 |
| 20260509170417 | 16 | 82 | 0.0 | 8.0 | 0.00 | 0.00 | 0.00 | 72 | 1019.3 |
| 20260509165917 | 16 | 198 | 1.6 | 8.0 | 0.00 | 0.00 | 0.00 | 72 | 1019.2 |
| 20260509165417 | 16 | 60 | 1.6 | 8.0 | 0.00 | 0.00 | 0.00 | 74 | 1019.5 |
| 20260509164917 | 16 | 67 | 4.8 | 8.0 | 0.00 | 0.00 | 0.00 | 75 | 1019.5 |
| 20260509164417 | 15 | 184 | 3.2 | 8.0 | 0.00 | 0.00 | 0.00 | 75 | 1019.5 |
| 20260509163917 | 15 | 38 | 4.8 | 6.4 | 0.00 | 0.00 | 0.00 | 75 | 1019.7 |
| 20260509163417 | 15 | 82 | 4.8 | 6.4 | 0.00 | 0.00 | 0.00 | 77 | 1019.7 |
| 20260509162917 | 15 | 75 | 4.8 | 6.4 | 0.00 | 0.00 | 0.00 | 75 | 1019.7 |
| 20260509162417 | 15 | 127 | 0.0 | 6.4 | 0.00 | 0.00 | 0.00 | 77 | 1019.8 |
| 20260509161917 | 15 | 53 | 3.2 | 8.0 | 0.00 | 0.00 | 0.00 | 78 | 1019.8 |
| 20260509161417 | 14 | 22 | 0.0 | 8.0 | 0.00 | 0.00 | 0.00 | 78 | 1019.8 |
| 20260509160917 | 14 | 74 | 0.0 | 6.4 | 0.00 | 0.00 | 0.00 | 79 | 1020.0 |
| 20260509160417 | 14 | 54 | 1.6 | 6.4 | 0.00 | 0.00 | 0.00 | 79 | 1020.0 |
| 20260509155917 | 14 | 42 | 6.4 | 6.4 | 0.00 | 0.00 | 0.00 | 79 | 1020.0 |
| 20260509155417 | 14 | 65 | 1.6 | 6.4 | 0.00 | 0.00 | 0.00 | 79 | 1020.1 |
| 20260509154917 | 14 | 66 | 0.0 | 6.4 | 0.00 | 0.00 | 0.00 | 79 | 1020.1 |
| 20260509153917 | 13 | 59 | 0.0 | 3.2 | 0.00 | 0.00 | 0.00 | 82 | 1020.0 |
| 20260509153417 | 13 | 49 | 0.0 | 3.2 | 0.00 | 0.00 | 0.00 | 82 | 1020.0 |
| 20260509152917 | 13 | 58 | 0.0 | 0.0 | 0.00 | 0.00 | 0.00 | 83 | 1020.0 |
| 20260509152417 | 13 | 77 | 0.0 | 0.0 | 0.00 | 0.00 | 0.00 | 83 | 1020.3 |
| 20260509151917 | 13 | 230 | 0.0 | 0.0 | 0.00 | 0.00 | 0.00 | 85 | 1020.2 |
| 20260509151417 | 13 | 232 | 0.0 | 0.0 | 0.00 | 0.00 | 0.00 | 86 | 1020.2 |
| 20260509150917 | 12 | 232 | 0.0 | 0.0 | 0.00 | 0.00 | 0.00 | 86 | 1020.3 |
| 20260509150417 | 12 | 232 | 0.0 | 0.0 | 0.00 | 0.00 | 0.00 | 86 | 1020.3 |
| 20260509145917 | 12 | 232 | 0.0 | 0.0 | 0.00 | 0.00 | 0.00 | 87 | 1020.3 |
| 20260509145417 | 11 | 232 | 0.0 | 0.0 | 0.00 | 0.00 | 0.00 | 90 | 1020.4 |
| 20260509144917 | 11 | 232 | 0.0 | 0.0 | 0.00 | 0.00 | 0.00 | 91 | 1020.4 |
| 20260509144417 | 11 | 232 | 0.0 | 0.0 | 0.00 | 0.00 | 0.00 | 91 | 1020.4 |
| 20260509143917 | 11 | 232 | 0.0 | 0.0 | 0.00 | 0.00 | 0.00 | 94 | 1020.3 |
| 20260509143417 | 10 | 232 | 0.0 | 0.0 | 0.00 | 0.00 | 0.00 | 95 | 1020.3 |
| 20260509142417 | 10 | 233 | 0.0 | 0.0 | 0.00 | 0.00 | 0.00 | 95 | 1020.1 |
| 20260509141917 | 10 | 233 | 0.0 | 0.0 | 0.00 | 0.00 | 0.00 | 97 | 1020.1 |
| 20260509141417 | 9 | 360 | 0.0 | 0.0 | 0.00 | 0.00 | 0.00 | 99 | 1020.1 |
| 20260509140917 | 9 | 360 | 0.0 | 0.0 | 0.00 | 0.00 | 0.00 | 100 | 1020.1 |
| 20260509140417 | 8 | 360 | 0.0 | 0.0 | 0.00 | 0.00 | 0.00 | 100 | 1020.1 |
| 20260509135917 | 8 | 360 | 0.0 | 0.0 | 0.00 | 0.00 | 0.00 | 100 | 1020.1 |
| 20260509135417 | 8 | 360 | 0.0 | 0.0 | 0.00 | 0.00 | 0.00 | 100 | 1020.2 |
| 20260509134917 | 7 | 360 | 0.0 | 0.0 | 0.00 | 0.00 | 0.00 | 97 | 1020.2 |
| 20260509134417 | 7 | 232 | 0.0 | 0.0 | 0.00 | 0.00 | 0.00 | 96 | 1020.2 |
| 20260509133917 | 7 | 360 | 0.0 | 0.0 | 0.00 | 0.00 | 0.00 | 95 | 1020.1 |
| 20260509133417 | 7 | 232 | 0.0 | 0.0 | 0.00 | 0.00 | 0.00 | 95 | 1020.1 |
| 20260509132917 | 7 | 360 | 0.0 | 0.0 | 0.00 | 0.00 | 0.00 | 95 | 1020.1 |
| 20260509132417 | 7 | 360 | 0.0 | 0.0 | 0.00 | 0.00 | 0.00 | 95 | 1020.1 |
| 20260509131917 | 7 | 360 | 0.0 | 0.0 | 0.00 | 0.00 | 0.00 | 94 | 1020.1 |
| 20260509131417 | 7 | 232 | 0.0 | 0.0 | 0.00 | 0.00 | 0.00 | 94 | 1020.1 |
| 20260509130917 | 7 | 233 | 0.0 | 0.0 | 0.00 | 0.00 | 0.00 | 94 | 1020.1 |
| 20260509130417 | 7 | 233 | 0.0 | 0.0 | 0.00 | 0.00 | 0.00 | 94 | 1020.1 |
| 20260509125917 | 7 | 233 | 0.0 | 0.0 | 0.00 | 0.00 | 0.00 | 94 | 1020.1 |
| 20260509124917 | 7 | 233 | 0.0 | 0.0 | 0.00 | 0.00 | 0.00 | 93 | 1020.0 |
| 20260509124417 | 7 | 233 | 0.0 | 0.0 | 0.00 | 0.00 | 0.00 | 93 | 1020.0 |
| 20260509123917 | 7 | 233 | 0.0 | 0.0 | 0.00 | 0.00 | 0.00 | 94 | 1020.2 |
| 20260509123417 | 7 | 233 | 0.0 | 0.0 | 0.00 | 0.00 | 0.00 | 93 | 1020.2 |
| 20260509122916 | 7 | 233 | 0.0 | 0.0 | 0.00 | 0.00 | 0.00 | 93 | 1020.2 |
| 20260509122417 | 7 | 233 | 0.0 | 0.0 | 0.00 | 0.00 | 0.00 | 93 | 1020.2 |
| 20260509121917 | 7 | 233 | 0.0 | 0.0 | 0.00 | 0.00 | 0.00 | 93 | 1020.2 |
| 20260509121416 | 7 | 233 | 0.0 | 0.0 | 0.00 | 0.00 | 0.00 | 93 | 1020.2 |
| 20260509120917 | 7 | 233 | 0.0 | 0.0 | 0.00 | 0.00 | 0.00 | 93 | 1020.4 |
| 20260509120417 | 7 | 233 | 0.0 | 0.0 | 0.00 | 0.00 | 0.00 | 92 | 1020.4 |
| 20260509115917 | 7 | 233 | 0.0 | 0.0 | 0.00 | 0.00 | 0.00 | 92 | 1020.4 |
| 20260509115417 | 7 | 233 | 0.0 | 0.0 | 0.00 | 0.00 | 0.00 | 92 | 1020.3 |
| 20260509114917 | 7 | 233 | 0.0 | 0.0 | 0.00 | 0.00 | 0.00 | 92 | 1020.3 |
| 20260509114416 | 7 | 233 | 0.0 | 0.0 | 0.00 | 0.00 | 0.00 | 92 | 1020.3 |
| 20260509113917 | 7 | 233 | 0.0 | 0.0 | 0.00 | 0.00 | 0.00 | 92 | 1020.4 |
| 20260509113416 | 7 | 233 | 0.0 | 0.0 | 0.00 | 0.00 | 0.00 | 92 | 1020.4 |
| 20260509112917 | 7 | 233 | 0.0 | 0.0 | 0.00 | 0.00 | 0.00 | 92 | 1020.4 |
| 20260509111917 | 7 | 233 | 0.0 | 0.0 | 0.00 | 0.00 | 0.00 | 92 | 1020.4 |
| 20260509111416 | 7 | 233 | 0.0 | 0.0 | 0.00 | 0.00 | 0.00 | 92 | 1020.4 |
| 20260509110916 | 7 | 233 | 0.0 | 0.0 | 0.00 | 0.00 | 0.00 | 91 | 1020.4 |
| 20260509110416 | 7 | 233 | 0.0 | 0.0 | 0.00 | 0.00 | 0.00 | 91 | 1020.4 |
| 20260509105916 | 7 | 232 | 0.0 | 0.0 | 0.00 | 0.00 | 0.00 | 91 | 1020.4 |
| 20260509104916 | 8 | 232 | 0.0 | 0.0 | 0.00 | 0.00 | 0.00 | 91 | 1020.7 |
| 20260509103917 | 8 | 233 | 0.0 | 0.0 | 0.00 | 0.00 | 0.00 | 91 | 1020.8 |
| 20260509103416 | 8 | 233 | 0.0 | 0.0 | 0.00 | 0.00 | 0.00 | 91 | 1020.8 |
| 20260509101416 | 8 | 232 | 0.0 | 0.0 | 0.00 | 0.00 | 0.00 | 90 | 1020.8 |
| 20260509092917 | 8 | 232 | 0.0 | 0.0 | 0.00 | 0.00 | 0.00 | 90 | 1020.8 |
| 20260509092416 | 8 | 232 | 0.0 | 0.0 | 0.00 | 0.00 | 0.00 | 90 | 1021.0 |
| 20260509090916 | 9 | 232 | 0.0 | 0.0 | 0.00 | 0.00 | 0.00 | 90 | 1021.1 |
| 20260509090416 | 9 | 232 | 0.0 | 0.0 | 0.00 | 0.00 | 0.00 | 89 | 1021.1 |
| 20260509085416 | 9 | 232 | 0.0 | 0.0 | 0.00 | 0.00 | 0.00 | 89 | 1021.2 |
| 20260509084916 | 9 | 232 | 0.0 | 0.0 | 0.00 | 0.00 | 0.00 | 89 | 1021.2 |
| 20260509083415 | 9 | 232 | 0.0 | 0.0 | 0.00 | 0.00 | 0.00 | 89 | 1021.2 |
| 20260509082915 | 9 | 232 | 0.0 | 0.0 | 0.00 | 0.00 | 0.00 | 89 | 1021.2 |
| 20260509082415 | 10 | 232 | 0.0 | 0.0 | 0.00 | 0.00 | 0.00 | 88 | 1021.3 |
| 20260509081916 | 10 | 232 | 0.0 | 0.0 | 0.00 | 0.00 | 0.00 | 88 | 1021.3 |
| 20260509081416 | 10 | 232 | 0.0 | 0.0 | 0.00 | 0.00 | 0.00 | 88 | 1021.3 |
| 20260509080916 | 10 | 232 | 0.0 | 0.0 | 0.00 | 0.00 | 0.00 | 88 | 1021.3 |
| 20260509075915 | 10 | 232 | 0.0 | 0.0 | 0.00 | 0.00 | 0.00 | 88 | 1021.3 |
| 20260509074916 | 10 | 232 | 0.0 | 0.0 | 0.00 | 0.00 | 0.00 | 87 | 1021.3 |
| 20260509074415 | 10 | 232 | 0.0 | 0.0 | 0.00 | 0.00 | 0.00 | 87 | 1021.3 |
| 20260509073916 | 10 | 233 | 0.0 | 0.0 | 0.00 | 0.00 | 0.00 | 86 | 1021.3 |
| 20260509073416 | 10 | 232 | 0.0 | 0.0 | 0.00 | 0.00 | 0.00 | 86 | 1021.3 |
| 20260509072916 | 10 | 232 | 0.0 | 0.0 | 0.00 | 0.00 | 0.00 | 86 | 1021.3 |
| 20260509071916 | 11 | 232 | 0.0 | 0.0 | 0.00 | 0.00 | 0.00 | 85 | 1021.3 |
| 20260509071415 | 11 | 232 | 0.0 | 0.0 | 0.00 | 0.00 | 0.00 | 84 | 1021.3 |
| 20260509070915 | 11 | 232 | 0.0 | 0.0 | 0.00 | 0.00 | 0.00 | 84 | 1021.3 |
| 20260509070415 | 11 | 232 | 0.0 | 0.0 | 0.00 | 0.00 | 0.00 | 83 | 1021.3 |
| 20260509065915 | 11 | 232 | 0.0 | 0.0 | 0.00 | 0.00 | 0.00 | 82 | 1021.3 |
| 20260509065415 | 11 | 232 | 0.0 | 0.0 | 0.00 | 0.00 | 0.00 | 82 | 1021.3 |
| 20260509064915 | 11 | 232 | 0.0 | 0.0 | 0.00 | 0.00 | 0.00 | 82 | 1021.3 |
| 20260509063915 | 12 | 232 | 0.0 | 0.0 | 0.00 | 0.00 | 0.00 | 81 | 1021.3 |
| 20260509062915 | 12 | 232 | 0.0 | 0.0 | 0.00 | 0.00 | 0.00 | 80 | 1021.3 |